FW5225 Weather Reports


time (UTC)temp
C
wind
direction
speed
KPH
gust
KPH
rain 1hr
cm
rain 24hr
cm
rain mn
cm
humidity
%
barometer
mb
20260509035012 33 261 4.8 11.3 0.00 0.00 0.00 13 1004.8
20260509034511 33 269 6.4 11.3 0.00 0.00 0.00 13 1004.8
20260509034011 33 269 3.2 9.7 0.00 0.00 0.00 13 1004.7
20260509033512 33 256 1.6 14.5 0.00 0.00 0.00 13 1004.6
20260509033011 33 308 6.4 14.5 0.00 0.00 0.00 13 1004.7
20260509032511 33 290 4.8 12.9 0.00 0.00 0.00 13 1004.6
20260509032011 33 307 4.8 17.7 0.00 0.00 0.00 13 1004.5
20260509031510 33 272 3.2 14.5 0.00 0.00 0.00 13 1004.5
20260509031010 34 287 3.2 14.5 0.00 0.00 0.00 12 1004.4
20260509030509 34 263 6.4 14.5 0.00 0.00 0.00 12 1004.4
20260509030008 34 267 8.0 14.5 0.00 0.00 0.00 12 1004.3
20260509025508 34 276 1.6 12.9 0.00 0.00 0.00 11 1004.3
20260509025006 35 267 3.2 14.5 0.00 0.00 0.00 10 1004.3
20260509024506 35 270 8.0 14.5 0.00 0.00 0.00 10 1004.2
20260509024006 35 295 6.4 14.5 0.00 0.00 0.00 10 1004.1
20260509023506 35 280 4.8 12.9 0.00 0.00 0.00 10 1004.0
20260509023006 35 319 4.8 12.9 0.00 0.00 0.00 10 1003.9
20260509022508 35 307 1.6 11.3 0.00 0.00 0.00 10 1003.9
20260509022006 35 280 3.2 16.1 0.00 0.00 0.00 10 1003.9
20260509021506 35 282 8.0 20.9 0.00 0.00 0.00 10 1003.8
20260509021007 35 303 8.0 20.9 0.00 0.00 0.00 10 1003.8
20260509020506 35 292 9.7 16.1 0.00 0.00 0.00 10 1003.8
20260509020007 35 257 6.4 19.3 0.00 0.00 0.00 10 1003.8
20260509015504 36 310 8.0 19.3 0.00 0.00 0.00 11 1003.7
20260509015003 36 281 9.7 19.3 0.00 0.00 0.00 10 1003.7
20260509014508 36 283 4.8 12.9 0.00 0.00 0.00 10 1003.7
20260509014004 36 278 3.2 11.3 0.00 0.00 0.00 10 1003.7
20260509013503 36 302 4.8 17.7 0.00 0.00 0.00 10 1003.6
20260509013004 36 268 8.0 17.7 0.00 0.00 0.00 10 1003.7
20260509012503 36 257 3.2 11.3 0.00 0.00 0.00 10 1003.6
20260509012004 36 322 6.4 12.9 0.00 0.00 0.00 10 1003.6
20260509011503 36 279 6.4 16.1 0.00 0.00 0.00 10 1003.7
20260509011002 37 306 8.0 16.1 0.00 0.00 0.00 10 1003.8
20260509010504 37 306 6.4 14.5 0.00 0.00 0.00 10 1003.7
20260509010004 37 264 6.4 16.1 0.00 0.00 0.00 10 1003.7
20260509005505 37 271 6.4 16.1 0.00 0.00 0.00 10 1003.8
20260509005002 37 264 6.4 14.5 0.00 0.00 0.00 10 1003.7
20260509004501 37 267 6.4 16.1 0.00 0.00 0.00 10 1003.7
20260509004001 37 277 8.0 16.1 0.00 0.00 0.00 10 1003.8
20260509003504 38 167 4.8 11.3 0.00 0.00 0.00 10 1003.8
20260509003101 37 240 1.6 11.3 0.00 0.00 0.00 11 1003.9
20260509002601 37 317 4.8 20.9 0.00 0.00 0.00 10 1003.9
20260509002100 38 298 9.7 20.9 0.00 0.00 0.00 9 1004.0
20260509001600 38 208 3.2 14.5 0.00 0.00 0.00 10 1004.0
20260509001100 38 249 4.8 17.7 0.00 0.00 0.00 10 1004.0
20260509000602 38 299 6.4 11.3 0.00 0.00 0.00 10 1004.1
20260509000059 38 88 1.6 8.0 0.00 0.00 0.00 10 1004.0
20260508235557 38 243 1.6 16.1 0.00 0.00 0.00 11 1004.1
20260508235057 38 332 3.2 16.1 0.00 0.00 0.00 10 1004.2
20260508234557 38 295 4.8 12.9 0.00 0.00 0.00 10 1004.2
20260508234056 38 264 4.8 16.1 0.00 0.00 0.00 10 1004.2
20260508233555 38 273 3.2 22.5 0.00 0.00 0.00 10 1004.3
20260508233114 38 251 1.6 22.5 0.00 0.00 0.00 10 1004.4
20260508232554 38 212 6.4 22.5 0.00 0.00 0.00 10 1004.4
20260508232055 38 296 6.4 14.5 0.00 0.00 0.00 10 1004.5
20260508231556 38 222 3.2 12.9 0.00 0.00 0.00 9 1004.4
20260508231051 38 195 6.4 12.9 0.00 0.00 0.00 10 1004.5
20260508230551 37 303 1.6 19.3 0.00 0.00 0.00 10 1004.5
20260508230056 37 324 6.4 19.3 0.00 0.00 0.00 11 1004.7
20260508225549 37 273 6.4 16.1 0.00 0.00 0.00 10 1004.6
20260508225049 37 277 6.4 17.7 0.00 0.00 0.00 10 1004.8
20260508224605 37 202 6.4 17.7 0.00 0.00 0.00 11 1004.7
20260508224048 37 269 6.4 17.7 0.00 0.00 0.00 11 1004.8
20260508223548 37 297 9.7 16.1 0.00 0.00 0.00 11 1004.9
20260508223047 37 209 4.8 16.1 0.00 0.00 0.00 12 1005.0
20260508222546 37 235 6.4 14.5 0.00 0.00 0.00 11 1005.1
20260508222045 37 219 3.2 19.3 0.00 0.00 0.00 11 1005.2
20260508221545 37 299 6.4 19.3 0.00 0.00 0.00 11 1005.4
20260508221044 37 214 4.8 14.5 0.00 0.00 0.00 12 1005.2
20260508220542 37 214 3.2 22.5 0.00 0.00 0.00 12 1005.5
20260508220042 37 275 11.3 22.5 0.00 0.00 0.00 12 1005.7
20260508215540 37 259 8.0 19.3 0.00 0.00 0.00 12 1005.8
20260508215040 37 265 3.2 16.1 0.00 0.00 0.00 12 1005.8
20260508214539 37 244 4.8 12.9 0.00 0.00 0.00 14 1006.1
20260508214040 36 239 3.2 12.9 0.00 0.00 0.00 14 1006.0
20260508213540 36 327 1.6 22.5 0.00 0.00 0.00 14 1006.1
20260508213038 36 296 8.0 22.5 0.00 0.00 0.00 13 1006.3
20260508212533 36 259 8.0 20.9 0.00 0.00 0.00 14 1006.4
20260508212033 36 263 3.2 19.3 0.00 0.00 0.00 14 1006.5
20260508211537 36 274 8.0 19.3 0.00 0.00 0.00 14 1006.6
20260508211032 36 300 9.7 17.7 0.00 0.00 0.00 16 1006.7
20260508210530 36 297 11.3 16.1 0.00 0.00 0.00 15 1006.8
20260508210031 35 274 3.2 17.7 0.00 0.00 0.00 15 1006.8
20260508205528 35 275 8.0 17.7 0.00 0.00 0.00 15 1007.0
20260508205031 36 271 4.8 16.1 0.00 0.00 0.00 15 1007.0
20260508204527 35 236 4.8 16.1 0.00 0.00 0.00 16 1007.1
20260508204026 35 216 4.8 19.3 0.00 0.00 0.00 16 1007.2
20260508203525 35 282 6.4 19.3 0.00 0.00 0.00 15 1007.2
20260508203025 35 297 4.8 16.1 0.00 0.00 0.00 15 1007.3
20260508202525 35 286 3.2 12.9 0.00 0.00 0.00 15 1007.3
20260508202023 35 250 6.4 9.7 0.00 0.00 0.00 15 1007.5
20260508201523 35 305 4.8 12.9 0.00 0.00 0.00 15 1007.5
20260508201022 35 210 6.4 12.9 0.00 0.00 0.00 15 1007.6
20260508200522 35 224 4.8 12.9 0.00 0.00 0.00 15 1007.8
20260508200027 35 260 6.4 12.9 0.00 0.00 0.00 15 1007.8
20260508195520 35 216 4.8 14.5 0.00 0.00 0.00 15 1007.8
20260508195022 35 300 3.2 11.3 0.00 0.00 0.00 15 1007.9
20260508194519 35 233 3.2 11.3 0.00 0.00 0.00 15 1007.9
20260508194019 35 159 4.8 11.3 0.00 0.00 0.00 15 1007.9
20260508193517 35 168 3.2 11.3 0.00 0.00 0.00 15 1008.0
20260508193016 35 277 1.6 12.9 0.00 0.00 0.00 17 1008.1
20260508192514 34 223 3.2 12.9 0.00 0.00 0.00 17 1008.1
20260508192013 34 184 1.6 8.0 0.00 0.00 0.00 17 1008.3
20260508191514 34 188 3.2 8.0 0.00 0.00 0.00 16 1008.4
20260508191011 34 173 1.6 9.7 0.00 0.00 0.00 16 1008.5
20260508190510 34 184 1.6 11.3 0.00 0.00 0.00 18 1008.5
20260508190008 34 139 1.6 8.0 0.00 0.00 0.00 17 1008.7
20260508185507 33 175 1.6 8.0 0.00 0.00 0.00 17 1008.7
20260508185006 33 200 1.6 8.0 0.00 0.00 0.00 17 1008.8
20260508184507 33 196 0.0 6.4 0.00 0.00 0.00 18 1008.8
20260508184004 33 186 1.6 8.0 0.00 0.00 0.00 16 1008.9
20260508183502 32 114 3.2 8.0 0.00 0.00 0.00 17 1008.9
20260508183001 32 161 1.6 6.4 0.00 0.00 0.00 17 1009.0
20260508182600 32 129 1.6 4.8 0.00 0.00 0.00 17 1009.1
20260508182100 32 96 1.6 6.4 0.00 0.00 0.00 17 1009.2
20260508181557 32 102 1.6 6.4 0.00 0.00 0.00 18 1009.2
20260508181057 32 126 0.0 6.4 0.00 0.00 0.00 16 1009.3
20260508180554 32 161 1.6 6.4 0.00 0.00 0.00 17 1009.4
20260508180053 31 348 0.0 4.8 0.00 0.00 0.00 17 1009.4
20260508175552 31 153 1.6 8.0 0.00 0.00 0.00 17 1009.5
20260508175050 31 155 0.0 8.0 0.00 0.00 0.00 18 1009.5
20260508174603 31 67 0.0 8.0 0.00 0.00 0.00 17 1009.6
20260508174047 31 292 0.0 3.2 0.00 0.00 0.00 17 1009.6
20260508173546 31 178 0.0 3.2 0.00 0.00 0.00 19 1009.6
20260508173047 30 138 0.0 3.2 0.00 0.00 0.00 18 1009.6
20260508172543 30 200 0.0 3.2 0.00 0.00 0.00 18 1009.6
20260508172042 30 94 0.0 6.4 0.00 0.00 0.00 18 1009.7
20260508171541 30 114 1.6 6.4 0.00 0.00 0.00 18 1009.8
20260508171040 30 126 0.0 3.2 0.00 0.00 0.00 17 1009.8
20260508170540 29 105 0.0 4.8 0.00 0.00 0.00 16 1009.8
20260508170040 -17 0.0 0.0 0.00 0.00 0.00 1009.8
20260508121529 21 53 1.6 6.4 0.00 0.00 0.00 21 1008.3
20260508121027 21 86 0.0 8.0 0.00 0.00 0.00 21 1008.3
20260508120526 22 50 4.8 8.0 0.00 0.00 0.00 21 1008.3
20260508120025 22 50 0.0 4.8 0.00 0.00 0.00 21 1008.3
20260508115524 23 45 0.0 3.2 0.00 0.00 0.00 21 1008.3
20260508115021 23 39 0.0 6.4 0.00 0.00 0.00 24 1008.2
20260508114525 23 347 1.6 6.4 0.00 0.00 0.00 25 1008.1
20260508114021 23 305 1.6 6.4 0.00 0.00 0.00 25 1008.0
20260508113520 23 232 1.6 6.4 0.00 0.00 0.00 25 1007.9
20260508113021 23 265 0.0 6.4 0.00 0.00 0.00 25 1007.9
20260508112519 23 267 1.6 4.8 0.00 0.00 0.00 24 1008.0
20260508112019 23 275 1.6 4.8 0.00 0.00 0.00 24 1007.9
20260508111520 23 267 1.6 4.8 0.00 0.00 0.00 23 1008.0
20260508111020 23 282 0.0 4.8 0.00 0.00 0.00 23 1007.9
20260508110518 23 282 1.6 4.8 0.00 0.00 0.00 24 1007.9
20260508110018 23 261 0.0 4.8 0.00 0.00 0.00 24 1007.9
20260508105517 23 260 0.0 4.8 0.00 0.00 0.00 24 1007.9
20260508105016 23 240 0.0 4.8 0.00 0.00 0.00 23 1007.9
20260508104516 23 216 0.0 3.2 0.00 0.00 0.00 23 1008.0
20260508104014 24 196 0.0 3.2 0.00 0.00 0.00 22 1008.0
20260508103513 24 223 0.0 3.2 0.00 0.00 0.00 21 1007.9
20260508103011 24 234 0.0 3.2 0.00 0.00 0.00 21 1007.9
20260508102511 25 234 0.0 3.2 0.00 0.00 0.00 21 1007.9
20260508102011 25 242 0.0 3.2 0.00 0.00 0.00 23 1007.9
20260508101514 25 263 0.0 3.2 0.00 0.00 0.00 20 1007.9
20260508101008 25 247 0.0 3.2 0.00 0.00 0.00 20 1008.0
20260508100506 25 191 0.0 3.2 0.00 0.00 0.00 19 1008.0
20260508100007 26 199 0.0 3.2 0.00 0.00 0.00 18 1008.0
20260508095504 26 199 0.0 3.2 0.00 0.00 0.00 18 1007.9
20260508095004 26 286 0.0 4.8 0.00 0.00 0.00 19 1007.9
20260508094511 26 248 1.6 9.7 0.00 0.00 0.00 18 1007.9
20260508094004 26 246 0.0 9.7 0.00 0.00 0.00 18 1007.8
20260508093504 26 248 1.6 9.7 0.00 0.00 0.00 18 1007.8
20260508093004 26 290 0.0 9.7 0.00 0.00 0.00 17 1007.8
20260508092507 26 286 0.0 12.9 0.00 0.00 0.00 17 1007.7
20260508092003 26 289 4.8 12.9 0.00 0.00 0.00 17 1007.7
20260508091503 26 243 1.6 14.5 0.00 0.00 0.00 17 1007.7
20260508091002 26 257 1.6 14.5 0.00 0.00 0.00 17 1007.7
20260508090503 26 265 4.8 11.3 0.00 0.00 0.00 17 1007.7
20260508090003 26 240 1.6 11.3 0.00 0.00 0.00 17 1007.7
20260508085503 26 259 4.8 9.7 0.00 0.00 0.00 17 1007.7
20260508085002 26 284 4.8 9.7 0.00 0.00 0.00 17 1007.8
20260508084501 26 271 3.2 9.7 0.00 0.00 0.00 17 1007.8
20260508084002 26 289 4.8 9.7 0.00 0.00 0.00 17 1007.7
20260508083500 26 272 4.8 8.0 0.00 0.00 0.00 17 1007.8
20260508083059 26 293 1.6 6.4 0.00 0.00 0.00 17 1007.8
20260508082559 26 258 1.6 4.8 0.00 0.00 0.00 18 1007.8
20260508082059 26 235 1.6 4.8 0.00 0.00 0.00 18 1007.8
20260508081609 26 252 0.0 4.8 0.00 0.00 0.00 18 1007.9
20260508081059 26 234 1.6 4.8 0.00 0.00 0.00 18 1007.8
20260508080556 26 232 0.0 4.8 0.00 0.00 0.00 18 1007.8
20260508080057 26 245 0.0 6.4 0.00 0.00 0.00 18 1007.8
20260508075559 27 219 0.0 6.4 0.00 0.00 0.00 18 1007.9
20260508075054 27 198 0.0 3.2 0.00 0.00 0.00 18 1007.8
20260508074553 27 252 0.0 3.2 0.00 0.00 0.00 18 1007.9
20260508074053 27 170 0.0 4.8 0.00 0.00 0.00 17 1007.9
20260508073552 27 206 0.0 8.0 0.00 0.00 0.00 17 1007.9
20260508073100 27 194 1.6 8.0 0.00 0.00 0.00 17 1007.8
20260508072550 27 200 0.0 3.2 0.00 0.00 0.00 17 1007.8
20260508072050 27 218 0.0 6.4 0.00 0.00 0.00 17 1007.8
20260508071602 28 202 0.0 6.4 0.00 0.00 0.00 17 1007.8
20260508071049 28 288 0.0 12.9 0.00 0.00 0.00 17 1007.8
20260508070548 28 186 3.2 14.5 0.00 0.00 0.00 17 1007.8
20260508070057 28 227 8.0 14.5 0.00 0.00 0.00 17 1007.8
20260508065548 28 169 1.6 9.7 0.00 0.00 0.00 18 1007.7
20260508065045 28 234 1.6 9.7 0.00 0.00 0.00 17 1007.7
20260508064545 28 281 3.2 9.7 0.00 0.00 0.00 17 1007.7
20260508064047 28 221 1.6 9.7 0.00 0.00 0.00 17 1007.7
20260508063544 28 273 1.6 9.7 0.00 0.00 0.00 17 1007.8
20260508063044 28 242 1.6 9.7 0.00 0.00 0.00 18 1007.8
20260508062544 28 266 1.6 9.7 0.00 0.00 0.00 17 1007.8
20260508062044 28 259 1.6 8.0 0.00 0.00 0.00 17 1007.8
20260508061545 28 245 1.6 8.0 0.00 0.00 0.00 17 1007.8
20260508061041 28 240 3.2 8.0 0.00 0.00 0.00 17 1007.9
20260508060540 28 262 3.2 11.3 0.00 0.00 0.00 17 1007.9
20260508060042 29 283 4.8 14.5 0.00 0.00 0.00 17 1007.9
20260508055541 29 263 4.8 14.5 0.00 0.00 0.00 17 1007.9
20260508055038 29 227 1.6 9.7 0.00 0.00 0.00 17 1007.9
20260508054545 29 224 1.6 9.7 0.00 0.00 0.00 17 1007.9
20260508054037 29 237 0.0 11.3 0.00 0.00 0.00 17 1007.9
20260508053539 29 271 4.8 14.5 0.00 0.00 0.00 17 1007.9
20260508053041 29 228 6.4 16.1 0.00 0.00 0.00 17 1007.9
20260508052536 29 262 6.4 19.3 0.00 0.00 0.00 17 1007.9
20260508052035 29 261 4.8 11.3 0.00 0.00 0.00 17 1007.8
20260508051539 30 257 1.6 12.9 0.00 0.00 0.00 17 1007.8
20260508051034 30 254 3.2 14.5 0.00 0.00 0.00 16 1007.8
20260508050535 30 266 6.4 14.5 0.00 0.00 0.00 16 1007.8
20260508050033 30 284 6.4 17.7 0.00 0.00 0.00 15 1007.8
20260508045533 30 278 9.7 14.5 0.00 0.00 0.00 14 1007.8
20260508045033 30 246 4.8 14.5 0.00 0.00 0.00 13 1007.8
20260508044533 30 282 3.2 12.9 0.00 0.00 0.00 12 1007.7
20260508044033 30 281 3.2 8.0 0.00 0.00 0.00 12 1007.7
20260508043529 30 267 3.2 9.7 0.00 0.00 0.00 12 1007.7
20260508043028 30 203 1.6 9.7 0.00 0.00 0.00 11 1007.7
20260508042528 30 225 3.2 14.5 0.00 0.00 0.00 11 1007.6
20260508042027 31 279 6.4 14.5 0.00 0.00 0.00 11 1007.6
20260508041527 30 282 4.8 16.1 0.00 0.00 0.00 12 1007.5
20260508041027 31 294 8.0 16.1 0.00 0.00 0.00 11 1007.5
20260508040527 31 321 6.4 12.9 0.00 0.00 0.00 11 1007.4
20260508040030 31 318 6.4 11.3 0.00 0.00 0.00 11 1007.4
20260508035527 31 275 4.8 12.9 0.00 0.00 0.00 11 1007.3